Regional Weather Roundup
Issued by NWS Little Rock, AR

Home | Current Version | Previous Version | Graphics & Text | Print | Product List | Glossary On
Versions: 1 2 3 4 5 6 7 8 9 10 11 12 13 14 15 16 17 18 19 20 21 22 23 24 25 26 27 28 29 30 31 32 33 34 35 36 37 38 39 40 41 42 43 44 45 46 47 48 49 50
106
ASUS44 KLZK 270005
RWRLZK

WEATHER ROUNDUP FOR ARKANSAS
NATIONAL WEATHER SERVICE LITTLE ROCK AR
700 PM CDT FRI MAY 26 2017

NOTE: "FAIR" INDICATES FEW OR NO CLOUDS BELOW 12,000 FEET WITH NO
SIGNIFICANT WEATHER AND/OR OBSTRUCTIONS TO VISIBILITY.

ARZ001-003-010-029-270100-
NORTHWEST ARKANSAS

CITY           SKY/WX    TMP DP  RH WIND       PRES   REMARKS
FAYETTEVILLE   CLOUDY    80  72  76 S9        29.79R
6HR MIN TEMP:  79; 6HR MAX TEMP:  85;

FORT SMITH     MOSUNNY   87  70  56 S7        29.74S HX  92
6HR MIN TEMP:  83; 6HR MAX TEMP:  89;

HARRISON       PTSUNNY   80  71  74 S5        29.81R
6HR MIN TEMP:  78; 6HR MAX TEMP:  83;

BENTONVILLE    MOSUNNY   82  70  65 S6        29.80S HX  86
6HR MIN TEMP:  79; 6HR MAX TEMP:  84;

ROGERS         PTSUNNY   82  71  69 S10       29.80R HX  86
6HR MIN TEMP:  80; 6HR MAX TEMP:  85; 6HR PCP:  0.01;

SILOAM SPGS    MOSUNNY   82  70  65 S8        29.78R HX  86
6HR MIN TEMP:  81; 6HR MAX TEMP:  86;

HIGHFILL       MOSUNNY   83  73  72 S9        29.79R HX  89
6HR MIN TEMP:  80; 6HR MAX TEMP:  86;

SPRINGDALE     MOSUNNY   82  72  69 S12       29.81R HX  87
$$

ARZ004-005-016-270100-
NORTH CENTRAL ARKANSAS

CITY           SKY/WX    TMP DP  RH WIND       PRES   REMARKS
BATESVILLE     CLOUDY    79  70  73 S6        29.82S
6HR MIN TEMP:  73; 6HR MAX TEMP:  81;

FLIPPIN        PTSUNNY   81  66  61 S7        29.78R
6HR MIN TEMP:  75; 6HR MAX TEMP:  81;

MTN HOME       PTSUNNY   78  69  73 S8        29.80R
6HR MIN TEMP:  76; 6HR MAX TEMP:  80;

$$

ARZ040-041-270100-
WEST CENTRAL ARKANSAS

CITY           SKY/WX    TMP DP  RH WIND       PRES   REMARKS
MENA           PTSUNNY   84  79  84 S3        29.82S HX  96
MOUNT IDA      CLOUDY    82  71  69 CALM      29.80R HX  86
6HR MIN TEMP:  77; 6HR MAX TEMP:  85;

$$

ARZ009-017-025-026-028-270100-
NORTHEAST ARKANSAS

CITY           SKY/WX    TMP DP  RH WIND       PRES   REMARKS
JONESBORO      CLOUDY    81  67  62 SW17G26   29.81S
6HR MIN TEMP:  77; 6HR MAX TEMP:  84;

NEWPORT        PTSUNNY   79  70  74 S12       29.82R
6HR MIN TEMP:  77; 6HR MAX TEMP:  82;

WALNUT RIDGE   CLOUDY    79  66  65 S14G20    29.81S
6HR MIN TEMP:  75; 6HR MAX TEMP:  79;

BLYTHEVILLE    CLOUDY    81  68  64 SW14G25   29.83R
6HR MIN TEMP:  81; 6HR MAX TEMP:  85;

$$

ARZ022-023-033-042-044-270100-
CENTRAL ARKANSAS

CITY           SKY/WX    TMP DP  RH WIND       PRES   REMARKS
LITTLE ROCK    CLOUDY    80  73  79 S9        29.81F
6HR MIN TEMP:  74; 6HR MAX TEMP:  82;

N LITTLE ROCK    N/A     81  73  76 S7        29.81S HX  85
6HR MIN TEMP:  75; 6HR MAX TEMP:  82;

JACKSONVILLE   CLOUDY    82  73  74 S3        29.81S HX  87
6HR MIN TEMP:  76; 6HR MAX TEMP:  84;

CONWAY           N/A     82  73  74 S12       29.79S HX  88
SEARCY         CLOUDY    80  72  76 S12       29.83S
6HR MIN TEMP:  74; 6HR MAX TEMP:  82;

HOT SPRINGS    CLOUDY    83  73  72 S9        29.81S HX  89
6HR MIN TEMP:  76; 6HR MAX TEMP:  84;

RUSSELLVILLE   CLOUDY    84  71  65 S5        29.79R HX  89
6HR MIN TEMP:  75; 6HR MAX TEMP:  85;

CLINTON        CLOUDY    81  72  74 VRB3      29.80S HAZE
$$

ARZ036-270100-
EAST ARKANSAS

CITY           SKY/WX    TMP DP  RH WIND       PRES   REMARKS
WEST MEMPHIS   CLOUDY    81  69  67 SW10      29.84R
6HR MIN TEMP:  80; 6HR MAX TEMP:  84;

$$

ARZ050-053-066-070-073-270100-
SOUTHWEST ARKANSAS

CITY           SKY/WX    TMP DP  RH WIND       PRES   REMARKS
ARKADELPHIA    CLOUDY    82  74  76 S7        29.81F HX  88
6HR MIN TEMP:  80; 6HR MAX TEMP:  86;

CAMDEN         CLOUDY    82  70  65 S8        29.83S HX  86
TEXARKANA      CLOUDY    84  74  71 S9        29.81S HX  91
6HR MIN TEMP:  84; 6HR MAX TEMP:  87;

EL DORADO      PTSUNNY   82  72  71 S12       29.85S HX  87
6HR MIN TEMP:  80; 6HR MAX TEMP:  85;

DE QUEEN       CLOUDY    85  75  72 S9        29.77R HX  93
6HR MIN TEMP:  83; 6HR MAX TEMP:  89;

$$

ARZ056-057-069-270100-
SOUTHEAST ARKANSAS

CITY           SKY/WX    TMP DP  RH WIND       PRES   REMARKS
PINE BLUFF     CLOUDY    80  71  74 S12       29.84S
6HR MIN TEMP:  77; 6HR MAX TEMP:  83;

STUTTGART      CLOUDY    81  63  54 S13       29.84F
MONTICELLO     CLOUDY    82  70  66 SW7       29.85S HX  86
6HR MIN TEMP:  81; 6HR MAX TEMP:  85;


$$






USA.gov is the U.S. government's official web portal to all federal, state and local government web resources and services.